Regional Weather Roundup
Issued by NWS Sterling, VA

Home | Current Version | Previous Version | Graphics & Text | Print | Product List | Glossary On
Versions: 1 2 3 4 5 6 7 8 9 10 11 12 13 14 15 16 17 18 19 20 21 22 23 24 25 26 27 28 29 30 31 32 33 34 35 36 37 38 39 40 41 42 43 44 45 46 47 48 49 50
000
ASUS41 KLWX 290210
RWRLWX

REGIONAL WEATHER ROUNDUP
NATIONAL WEATHER SERVICE BALTIMORE MD/WASHINGTON DC
1000 PM EDT THU MAY 28 2015

Note: "FAIR" indicates few or no clouds below 12,000 feet
with no significant weather and/or obstructions to visibility.
 TC=TEMPERATURE CELSIUS

 * =Non NWS site. Station does not report precipitation (e.g. rain,
    snow, etc.), thunder, or fog.

DCZ001-MDZ009-015-VAZ040>042-051-053>054-290300-
WASHINGTON METRO

CITY           SKY/WX    TMP DP  RH WIND       PRES   REMARKS
WASHINGTON NAT CLOUDY    78  68  71 CALM      30.20R
DULLES         CLOUDY    73  67  81 CALM      30.20R
FT BELVOIR     CLOUDY    73  68  83 CALM      30.19R
QUANTICO       CLOUDY    76  70  82 NW5       30.19R
COLLEGE PARK*  CLOUDY    73  64  73 CALM      30.19R
LEESBURG*      CLOUDY    73  70  88 NW6       30.22R
GAITHERSBURG*  MOCLDY    73  64  73 CALM      30.25R

$$

MDZ006>007-011-014-290300-
BALTIMORE METRO

CITY           SKY/WX    TMP DP  RH WIND       PRES   REMARKS
BWI AIRPORT    CLOUDY    78  66  66 CALM      30.19R
MD SCIENCE CTR   N/A     80  66  62 MISG      30.20R
MARTIN STATE   CLOUDY    79  72  78 SE8       30.20R
ANNAPOLIS      CLOUDY    75  69  81 CALM      30.19R
FORT MEADE*    CLOUDY    70  66  88 CALM      30.21R

$$

MDZ012-015-019>023-290300-
MARYLAND EASTERN SHORE

CITY           SKY/WX    TMP DP  RH WIND       PRES   REMARKS
OCEAN CITY     PTCLDY    70  64  81 SW7       30.22R
SALISBURY      CLEAR     69  65  86 SE3       30.21R
BAY BRIDGE AP*   N/A    N/A N/A N/A S7        30.20R
CAMBRIDGE*     CLOUDY    73  68  83 S3        30.20R
EASTON*        CLOUDY    77  72  83 SW7       30.24R

$$

MDZ017>025-290300-
SOUTHERN MARYLAND

CITY           SKY/WX    TMP DP  RH WIND       PRES   REMARKS
PATUXENT RIVER MOCLDY    73  67  81 SE5       30.19R
ST INIGOES     MOCLDY    74  68  81 SE7       30.19R
LEONARDTOWN*   MOCLDY    73  68  83 SE5       30.21R

$$

MDZ003>005-290300-
NORTH CENTRAL MARYLAND

CITY           SKY/WX    TMP DP  RH WIND       PRES   REMARKS
FREDERICK*     MOCLDY    73  68  83 CALM      30.23R
HAGERSTOWN APT PTCLDY    76  59  55 NE3       30.22R
WESTMINSTER*   MOCLDY    75  64  69 CALM      30.23R

$$

MDZ501>502-290300-
WESTERN MARYLAND

CITY           SKY/WX    TMP DP  RH WIND       PRES   REMARKS
OAKLAND*       PTCLDY    64  64 100 E7        30.32R
CUMBERLAND*    PTCLDY    75  59  57 N3        30.27R

$$

VAZ025>031-290300-
SHENANDOAH VALLEY

CITY           SKY/WX    TMP DP  RH WIND       PRES   REMARKS
WINCHESTER*    CLOUDY    72  64  78 CALM      30.22R
FRONT ROYAL*   CLOUDY    72  66  83 CALM      30.21R
LURAY*         FAIR      72  66  83 CALM      30.23R
NEW MARKET*    CLOUDY    69  65  90 CALM      30.21R
STAUNTON*      MOCLDY    71  65  81 CALM      30.25R
WAYNESBORO*    FAIR      70  64  82 S6        30.25R

$$

WVZ021-048>050-054>055-290300-
EASTERN WEST VIRGINIA PANHANDLE

CITY           SKY/WX    TMP DP  RH WIND       PRES   REMARKS
MARTINSBURG    MOCLDY    74  59  59 CALM      30.23R
PETERSBURG*    MOCLDY    69  62  79 CALM      30.24R

$$

VAZ036>039-050-290300-
CENTRAL FOOTHILLS

CITY           SKY/WX    TMP DP  RH WIND       PRES   REMARKS
CHARLOTTESVILL MOCLDY    70  65  84 SW3       30.21R
CULPEPER*      CLOUDY    69  64  86 CALM      30.20S
ORANGE*        CLOUDY    70  68  94 S5        30.23R
GORDONSVILLE*  FAIR      68  68  98 NW3       30.20S
WARRENTON*     FAIR      70  69  95 CALM      30.20R

$$

VAZ055>057-290300-
NORTH AND CENTRAL PIEDMONT

CITY           SKY/WX    TMP DP  RH WIND       PRES   REMARKS
FREDERICKSBRG* MOCLDY    78  72  81 CALM      30.19R
STAFFORD*      MOCLDY    71  69  94 SW3       30.23S

$$

NCZ024-NYZ072-PAZ021-071-VAZ022-071-290300-
OTHER REGIONAL OBSERVATIONS

CITY           SKY/WX    TMP DP  RH WIND       PRES   REMARKS
NEW YORK CITY  MOCLDY    78  53  41 VRB6      30.23R
PHILADELPHIA   CLOUDY    77  69  76 S6        30.20R
PITTSBURGH     CLEAR     72  52  49 E5        30.24R
ROANOKE        MOCLDY    74  64  71 E7        30.25R
RICHMOND       CLOUDY    78  70  76 SE8       30.19R
RALEIGH        LGT RAIN  77  67  71 SW3       30.20S

$$

ANZ530>537-290300-
MARINE OBSERVATIONS

STATION/POSITION TIME  TEMP    WIND        PRES
                       AIR SEA DIR/SP/G
                 (UTC) (F)     (DEG/KT/KT) (MB)
THOMAS PT LIGHT  0200   72 70  180/ 11/ 12 1022.8R
BALT KEY BRIDGE  0100   78     100/  5/  6 1021.6R
COVE POINT       0100   72     200/ 10/ 13 1022.6R
LEWISETTA        0100   75 75              1021.8R
SOLOMONS ISLAND  0100      74                N/A
PINEY POINT      0100          170/  9/ 10   N/A

$$




USA.gov is the U.S. government's official web portal to all federal, state and local government web resources and services.